1498633200.63,21784,18.88,73716.5,9.77,-3.83,-1.87,0,*7A
1498633201.87,21785,18.88,73712.8,9.77,-3.75,-1.87,0,*72
1498633203.1,21786,18.94,73716.5,9.79,-3.83,-1.91,0,*71
1498633204.32,21787,18.88,73708.0,9.79,-4.13,-2.07,0,*72
1498633205.53,21788,18.94,73704.5,9.77,-4.29,-2.39,0,*77
1498633206.74,21789,18.88,73704.8,9.77,-4.25,-2.19,0,*78
1498633207.95,21790,18.88,73702.3,9.77,-4.17,-2.23,0,*78
1498633209.21,21791,18.88,73700.3,9.77,-4.73,-2.75,0,*78
1498633210.43,21792,18.88,73708.3,9.77,-4.25,-2.23,0,*7B
1498633211.67,21793,18.88,73746.5,9.73,-4.53,-2.63,0,*7B
1498633212.9,21794,18.88,73746.8,9.77,-4.89,-3.07,0,*7C
1498633214.15,21795,18.94,73754.0,9.73,-4.41,-2.51,0,*7F
1498633215.39,21796,18.88,73718.5,9.73,-4.81,-2.99,0,*74
1498633216.6,21797,18.88,73686.8,9.73,-4.33,-2.43,0,*7B
1498633217.81,21798,18.88,73694.3,9.71,-4.45,-2.55,0,*70
1498633218.98,21799,18.88,73714.5,9.71,-4.99,-3.11,0,*71
1498633220.18,21800,18.88,73704.5,9.71,-4.69,-2.91,0,*78
1498633221.38,21801,18.88,73696.3,9.71,-4.69,-2.79,0,*7F
1498633222.61,21802,18.88,73694.5,9.69,-4.85,-2.95,0,*75
1498633223.84,21803,18.88,73698.5,9.69,-4.73,-2.83,0,*7A
1498633225.09,21804,18.88,73704.5,9.69,-4.57,-2.67,0,*71
1498633226.29,21805,18.88,73706.5,9.67,-4.45,-2.55,0,*7C
1498633227.48,21806,18.94,73714.0,9.67,-4.25,-2.27,0,*7C
1498633228.67,21807,18.88,73716.5,9.67,-4.09,-2.19,0,*7E
1498633229.88,21808,18.88,73712.0,9.69,-4.13,-2.19,0,*74
1498633231.08,21809,18.88,73700.5,9.67,-4.25,-2.43,0,*71
1498633232.32,21810,18.88,73696.8,9.69,-4.57,-2.67,0,*74
1498633233.56,21811,18.88,73710.0,9.69,-4.57,-2.71,0,*72
1498633234.8,21812,18.88,73720.8,9.67,-4.01,-1.95,0,*75
1498633236.04,21813,18.88,73726.0,9.69,-3.83,-1.95,0,*77
1498633237.29,21814,18.88,73708.8,9.69,-3.91,-2.03,0,*7F
1498633238.56,21815,18.88,73710.8,9.69,-4.01,-2.07,0,*74
1498633239.8,21816,18.88,73718.5,9.69,-3.59,-1.79,0,*77
1498633241.04,21817,18.94,73726.5,9.69,-3.55,-1.67,0,*75
1498633242.26,21818,18.88,73724.0,9.71,-3.51,-1.67,0,*77
1498633243.48,21819,18.88,73712.5,9.71,-3.75,-1.91,0,*79
1498633244.66,21820,18.88,73714.0,9.71,-4.05,-2.15,0,*7C
1498633245.91,21821,18.88,73716.0,9.73,-3.67,-1.75,0,*79
1498633247.15,21822,18.88,73716.5,9.73,-3.63,-1.63,0,*79
1498633248.4,21823,18.88,73704.3,9.73,-3.63,-1.79,0,*73
1498633249.64,21824,18.88,73704.0,9.77,-3.75,-1.87,0,*76
1498633250.88,21825,18.88,73704.5,9.77,-4.05,-2.11,0,*7B
1498633252.13,21826,18.88,73730.8,9.77,-3.83,-1.99,0,*72
1498633253.36,21827,18.88,73724.3,9.77,-3.83,-1.95,0,*7F
1498633254.57,21828,18.88,73714.0,9.77,-4.05,-2.19,0,*7E
1498633255.79,21829,18.88,73704.3,9.77,-4.25,-2.39,0,*7F
1498633257.0,21830,18.88,73722.3,9.77,-4.25,-2.39,0,*77
1498633258.21,21831,18.88,73706.0,9.77,-4.37,-2.39,0,*75
1498633259.42,21832,18.94,73712.3,9.77,-4.17,-2.39,0,*74
1498633260.61,21833,18.88,73706.5,9.79,-4.25,-2.35,0,*76
1498633261.85,21834,18.94,73704.3,9.77,-5.03,-3.11,0,*7D
1498633263.08,21835,18.88,73698.8,9.73,-4.93,-3.03,0,*73
1498633264.32,21836,18.88,73702.8,9.73,-5.07,-3.19,0,*77
1498633265.53,21837,18.88,73702.3,9.71,-5.11,-3.27,0,*7E
1498633266.73,21838,18.88,73702.5,9.71,-5.19,-3.31,0,*7E
1498633267.95,21839,18.88,73728.5,9.71,-4.41,-2.55,0,*70
1498633269.13,21840,18.88,73740.0,9.67,-4.13,-2.27,0,*7B
1498633270.37,21841,18.88,73726.3,9.69,-4.33,-2.55,0,*73
1498633271.6,21842,18.88,73720.3,9.67,-3.91,-2.03,0,*72
1498633272.82,21843,18.94,73714.8,9.69,-3.95,-2.15,0,*7E
1498633274.03,21844,18.88,73710.8,9.69,-4.57,-2.83,0,*7F
1498633275.23,21845,18.94,73714.5,9.71,-4.85,-3.03,0,*71
1498633276.41,21846,18.88,73702.5,9.71,-4.65,-2.91,0,*76
1498633277.61,21847,18.88,73702.8,9.71,-4.85,-3.11,0,*70
1498633278.83,21848,18.88,73704.0,9.69,-4.09,-2.31,0,*71
1498633280.02,21849,18.88,73704.0,9.67,-4.25,-2.43,0,*75
1498633281.2,21850,18.88,73720.8,9.67,-4.09,-2.27,0,*71
1498633282.45,21851,18.88,73714.5,9.69,-3.83,-2.03,0,*7D
1498633283.67,21852,18.94,73712.5,9.69,-4.21,-2.31,0,*70
1498633284.92,21853,18.88,73710.0,9.69,-4.25,-2.47,0,*74
1498633286.15,21854,18.88,73716.0,9.69,-4.37,-2.59,0,*7F
1498633287.33,21855,18.94,73714.0,9.71,-4.29,-2.43,0,*73
1498633288.54,21856,18.88,73708.0,9.71,-4.45,-2.63,0,*78
1498633289.73,21857,18.94,73714.8,9.71,-4.57,-2.87,0,*70
1498633290.94,21858,18.88,73712.8,9.69,-4.57,-2.79,0,*77
1498633292.15,21859,18.88,73714.0,9.67,-4.37,-2.67,0,*71
1498633293.38,21860,18.88,73718.5,9.69,-4.45,-2.67,0,*70
1498633294.59,21861,18.88,73712.3,9.67,-4.45,-2.71,0,*78
1498633295.77,21862,18.88,73716.5,9.67,-4.61,-2.91,0,*73
1498633296.98,21863,18.88,73712.3,9.67,-4.45,-2.67,0,*7D
1498633298.2,21864,18.88,73712.5,9.67,-4.33,-2.47,0,*79
1498633299.39,21865,18.88,73712.8,9.67,-4.25,-2.43,0,*7B
1498633300.58,21866,18.88,73716.0,9.67,-4.13,-2.27,0,*7F
1498633301.76,21867,18.88,73720.8,9.67,-4.13,-2.27,0,*7E
1498633302.98,21868,18.88,73724.0,9.69,-3.83,-2.15,0,*70
1498633304.18,21869,18.88,73720.5,9.67,-4.21,-2.43,0,*73
1498633305.37,21870,18.88,73714.8,9.67,-4.21,-2.27,0,*79
1498633306.6,21871,18.88,73722.8,9.69,-4.37,-2.67,0,*75
1498633307.78,21872,18.88,73726.5,9.67,-4.49,-2.79,0,*7E
1498633308.98,21873,18.88,73718.8,9.67,-4.21,-2.43,0,*78
1498633310.16,21874,18.88,73718.5,9.67,-4.09,-2.27,0,*77
1498633311.38,21875,18.94,73718.0,9.69,-3.95,-2.19,0,*77
1498633312.61,21876,18.88,73714.5,9.69,-4.45,-2.67,0,*77
1498633313.82,21877,18.88,73712.8,9.69,-4.49,-2.79,0,*75
1498633315.02,21878,18.88,73718.0,9.69,-4.61,-2.91,0,*76
1498633316.24,21879,18.88,73720.0,9.67,-4.33,-2.55,0,*76
1498633317.43,21880,18.88,73722.3,9.67,-4.13,-2.27,0,*77
1498633318.63,21881,18.88,73718.0,9.67,-3.91,-2.15,0,*7A
1498633319.87,21882,18.88,73722.8,9.69,-3.83,-2.03,0,*73
1498633321.11,21883,18.88,73726.3,9.69,-3.79,-1.95,0,*7B
1498633322.36,21884,18.94,73730.0,9.69,-3.83,-2.03,0,*75
1498633323.62,21885,18.88,73720.3,9.69,-3.67,-1.83,0,*75
1498633324.83,21886,18.88,73718.3,9.69,-4.09,-2.27,0,*74
1498633326.08,21887,18.88,73718.3,9.69,-3.91,-2.07,0,*71
1498633327.3,21888,18.94,73720.0,9.71,-3.75,-1.91,0,*71
1498633328.52,21889,18.88,73722.3,9.71,-3.87,-2.03,0,*75
1498633329.77,21890,18.88,73724.5,9.73,-3.91,-2.03,0,*78
1498633330.96,21891,18.88,73728.3,9.71,-4.09,-2.23,0,*7F
1498633332.15,21892,18.88,73724.5,9.71,-3.91,-2.15,0,*7F
1498633333.35,21893,18.88,73706.0,9.71,-3.91,-2.15,0,*7E
1498633334.58,21894,18.88,73712.3,9.73,-4.45,-2.75,0,*73
1498633335.77,21895,18.88,73708.0,9.71,-4.21,-2.43,0,*77
1498633336.96,21896,18.88,73700.3,9.71,-4.09,-2.23,0,*78
1498633338.17,21897,18.88,73690.3,9.71,-4.45,-2.67,0,*71
1498633339.37,21898,18.88,73686.5,9.71,-4.45,-2.67,0,*7E
1498633340.57,21899,18.94,73680.0,9.71,-4.81,-2.91,0,*7E
1498633341.81,21900,18.88,73684.0,9.73,-4.81,-2.99,0,*75
1498633343.0,21901,18.88,73688.3,9.71,-3.95,-2.15,0,*70
1498633344.22,21902,18.88,73694.0,9.71,-3.91,-2.03,0,*70
1498633345.44,21903,18.88,73698.0,9.71,-3.87,-2.11,0,*75
1498633346.68,21904,18.88,73706.8,9.73,-3.87,-2.11,0,*70
1498633347.9,21905,18.88,73714.0,9.71,-3.79,-1.87,0,*7E
1498633349.11,21906,18.88,73708.5,9.77,-4.13,-2.23,0,*7D
1498633350.3,21907,18.88,73710.8,9.71,-4.17,-2.39,0,*75
1498633351.54,21908,18.88,73710.8,9.73,-3.51,-1.75,0,*76
1498633352.79,21909,18.88,73700.5,9.77,-3.63,-1.71,0,*76
1498633354.03,21910,18.88,73702.8,9.77,-3.51,-1.71,0,*7F
1498633355.25,21911,18.88,73706.5,9.79,-3.31,-1.43,0,*77
1498633356.49,21912,18.94,73706.0,9.77,-3.47,-1.63,0,*79
1498633357.74,21913,18.88,73706.8,9.79,-4.01,-2.07,0,*72
1498633358.98,21914,18.88,73698.5,9.81,-3.95,-2.07,0,*78
1498633360.22,21915,18.88,73696.5,9.81,-4.45,-2.67,0,*75
1498633361.45,21916,18.94,73702.8,9.81,-4.89,-3.07,0,*71
1498633362.68,21917,18.94,73730.8,9.77,-4.93,-3.15,0,*71
1498633363.88,21918,18.88,73732.5,9.77,-5.43,-3.75,0,*74
1498633365.08,21919,18.94,73630.3,9.77,-6.05,-4.17,0,*77
1498633366.32,21920,18.94,73642.3,9.73,-5.35,-3.55,0,*78
1498633367.49,21921,18.88,73626.3,9.71,-4.99,-3.15,0,*78
1498633368.7,21922,18.88,73622.0,9.71,-5.07,-3.31,0,*7B
1498633369.9,21923,18.88,73620.0,9.71,-4.93,-3.15,0,*70
1498633371.1,21924,18.88,73632.5,9.71,-4.85,-3.11,0,*74
1498633372.33,21925,18.88,73640.8,9.69,-4.85,-3.07,0,*7B
1498633373.55,21926,18.88,73646.0,9.69,-4.69,-2.91,0,*74
1498633374.78,21927,18.88,73662.8,9.69,-4.69,-2.91,0,*75
1498633376.0,21928,18.88,73672.8,9.69,-4.69,-2.91,0,*7A
1498633377.21,21929,18.88,73670.0,9.69,-4.57,-2.79,0,*70
1498633378.42,21930,18.88,73680.5,9.69,-4.61,-2.83,0,*78
1498633379.65,21931,18.88,73680.8,9.69,-4.73,-2.95,0,*7D
1498633380.88,21932,18.88,73680.0,9.69,-4.69,-2.91,0,*71
1498633382.08,21933,18.88,73690.8,9.67,-4.69,-2.79,0,*78
1498633383.28,21934,18.88,73696.8,9.67,-4.21,-2.31,0,*7F
1498633384.5,21935,18.88,73706.5,9.67,-4.01,-2.15,0,*7A
1498633385.75,21936,18.88,73706.0,9.69,-3.95,-2.07,0,*7E
1498633386.96,21937,18.88,73712.3,9.69,-4.13,-2.27,0,*74
1498633388.2,21938,18.88,73708.8,9.69,-4.01,-2.19,0,*75
1498633389.45,21939,18.88,73712.0,9.69,-3.79,-1.91,0,*7F
1498633390.7,21940,18.88,73712.3,9.73,-3.75,-1.87,0,*71
1498633391.94,21941,18.88,73712.5,9.73,-3.67,-1.75,0,*7E
1498633393.18,21942,18.88,73714.0,9.73,-3.55,-1.63,0,*7B
1498633394.45,21943,18.88,73710.5,9.73,-3.43,-1.47,0,*7B
1498633395.66,21944,18.88,73716.3,9.77,-3.27,-1.33,0,*79
1498633396.86,21945,18.88,73716.3,9.77,-3.23,-1.33,0,*7C
1498633398.06,21946,18.88,73710.5,9.79,-3.11,-1.21,0,*73
1498633399.25,21947,18.94,73716.3,9.79,-3.11,-1.21,0,*72
1498633400.46,21948,18.88,73712.8,9.81,-3.19,-1.29,0,*7A
1498633401.65,21949,18.88,73712.5,9.83,-3.15,-1.29,0,*75
1498633402.84,21950,18.88,73712.0,9.87,-3.03,-1.25,0,*72
1498633404.03,21951,18.88,73712.5,9.87,-3.11,-1.25,0,*70
1498633405.21,21952,18.88,73710.5,9.87,-3.15,-1.25,0,*77
1498633406.4,21953,18.88,73716.5,9.87,-3.23,-1.25,0,*73
1498633407.58,21954,18.88,73716.8,9.87,-3.23,-1.33,0,*73
1498633408.79,21955,18.88,73718.3,9.91,-3.47,-1.55,0,*77
1498633410.01,21956,18.88,73724.5,9.91,-3.19,-1.35,0,*79
1498633411.23,21957,18.88,73712.0,9.91,-3.31,-1.47,0,*77
1498633412.45,21958,18.88,73712.5,9.91,-3.35,-1.47,0,*7C
1498633413.67,21959,18.88,73710.8,9.91,-3.31,-1.43,0,*7D
1498633414.85,21960,18.88,73714.0,9.91,-3.23,-1.33,0,*73
1498633416.07,21961,18.88,73718.8,9.95,-3.11,-1.13,0,*75
1498633417.31,21962,18.88,73716.3,9.93,-3.27,-1.39,0,*7D
1498633418.53,21963,18.88,73714.8,9.95,-3.39,-1.47,0,*7C
1498633419.75,21964,18.88,73712.5,9.95,-3.59,-1.63,0,*7B
1498633420.97,21965,18.88,73718.0,9.99,-3.63,-1.75,0,*78
1498633422.24,21966,18.88,73718.3,10.01,-3.71,-1.83,0,*48
1498633423.46,21967,18.88,73718.3,9.99,-3.75,-1.87,0,*70
1498633424.68,21968,18.88,73720.8,9.99,-3.91,-2.11,0,*79
1498633425.93,21969,18.88,73720.8,10.01,-3.95,-1.95,0,*4A
1498633427.17,21970,18.88,73722.3,10.01,-3.83,-1.91,0,*41
1498633428.42,21971,18.88,73716.0,10.01,-3.75,-1.91,0,*49
1498633429.67,21972,18.88,73712.0,10.01,-4.01,-2.19,0,*4D
1498633430.89,21973,18.88,73716.3,10.01,-4.25,-2.43,0,*45
1498633432.1,21974,18.88,73716.3,10.01,-4.09,-2.23,0,*4A
1498633433.32,21975,18.88,73712.0,9.99,-4.41,-2.63,0,*7A
1498633434.53,21976,18.88,73712.3,9.99,-4.53,-2.71,0,*79
1498633435.75,21977,18.88,73708.0,9.99,-4.65,-2.71,0,*7D
1498633436.97,21978,18.88,73710.0,9.99,-4.65,-2.75,0,*76
1498633438.17,21979,18.88,73712.0,9.99,-4.49,-2.59,0,*77
1498633439.37,21980,18.88,73710.0,9.99,-4.25,-2.39,0,*7D
1498633440.62,21981,18.88,73714.0,10.01,-4.25,-2.47,0,*4C
1498633441.8,21982,18.88,73706.8,9.99,-4.17,-2.35,0,*72
1498633443.0,21983,18.88,73700.8,9.99,-4.05,-2.23,0,*77
1498633444.22,21984,18.88,73702.5,9.99,-4.29,-2.47,0,*7C
1498633445.44,21985,18.88,73704.0,10.01,-4.21,-2.43,0,*48
1498633446.65,21986,18.88,73704.8,10.01,-4.13,-2.31,0,*4F
1498633447.87,21987,18.88,73704.0,10.01,-4.09,-2.19,0,*4F
1498633449.12,21988,18.88,73728.0,10.01,-3.47,-1.67,0,*47
1498633450.36,21989,18.88,73736.3,10.01,-3.63,-1.79,0,*4F
1498633451.59,21990,18.88,73744.0,10.03,-3.79,-1.87,0,*4F
1498633452.82,21991,18.88,73750.3,10.03,-5.27,-3.55,0,*4E
1498633454.03,21992,18.88,73724.3,10.03,-5.39,-3.59,0,*4E
1498633455.27,21993,18.88,73676.0,10.01,-4.73,-2.87,0,*40
1498633456.47,21994,18.88,73660.8,9.99,-4.37,-2.59,0,*7D
1498633457.66,21995,18.88,73658.8,9.99,-4.17,-2.39,0,*78
1498633458.85,21996,18.88,73672.8,9.99,-4.17,-2.39,0,*7B
1498633460.08,21997,18.88,73690.5,10.01,-4.77,-2.87,0,*40
1498633461.32,21998,18.88,73698.0,10.01,-5.03,-3.23,0,*42
1498633462.52,21999,18.88,73698.5,9.99,-4.69,-2.83,0,*7C
1498633463.74,22000,18.88,73698.8,9.99,-4.53,-2.71,0,*72
1498633464.94,22001,18.88,73698.0,10.01,-4.61,-2.79,0,*43
1498633466.16,22002,18.88,73700.5,9.99,-4.65,-2.71,0,*75
1498633467.37,22003,18.88,73700.8,10.01,-4.65,-2.83,0,*40
1498633468.59,22004,18.88,73696.8,9.99,-4.65,-2.71,0,*73
1498633469.81,22005,18.88,73696.5,9.99,-4.57,-2.71,0,*73
1498633471.03,22006,18.88,73692.5,9.99,-4.65,-2.75,0,*75
1498633472.24,22007,18.88,73690.3,10.01,-4.65,-2.79,0,*41
1498633473.45,22008,18.88,73686.0,9.95,-4.81,-2.99,0,*7F
1498633474.67,22009,18.88,73684.0,9.95,-5.15,-3.35,0,*75
1498633475.88,22010,18.88,73700.0,9.95,-5.19,-3.35,0,*71
1498633477.1,22011,18.88,73710.0,9.95,-4.53,-2.63,0,*7D
1498633478.29,22012,18.88,73728.3,9.95,-4.13,-2.15,0,*7B
1498633479.51,22013,18.88,73738.0,9.95,-4.41,-2.59,0,*75
1498633480.7,22014,18.88,73726.8,9.95,-4.17,-2.27,0,*78
1498633481.95,22015,18.88,73728.8,10.01,-3.83,-1.91,0,*48
1498633483.16,22016,18.88,73702.5,9.99,-4.89,-2.99,0,*74
1498633484.35,22017,18.88,73682.0,9.99,-6.13,-4.29,0,*79
1498633485.54,22018,18.88,73634.3,9.95,-5.35,-3.39,0,*7B
1498633486.77,22019,18.88,73682.0,9.93,-4.85,-3.03,0,*7F
1498633487.99,22020,18.88,73690.5,9.95,-4.81,-2.99,0,*75
1498633489.19,22021,18.88,73702.5,9.95,-4.81,-2.91,0,*7C
1498633490.41,22022,18.88,73704.8,9.95,-4.37,-2.63,0,*7F
1498633491.63,22023,18.88,73694.3,9.99,-4.65,-2.63,0,*75
1498633492.85,22024,18.88,73692.8,9.95,-5.03,-2.99,0,*7A
1498633494.06,22025,18.88,73700.5,9.95,-4.89,-2.91,0,*70
1498633495.28,22026,18.88,73694.8,9.95,-4.49,-2.51,0,*73
1498633496.49,22027,18.88,73698.5,9.95,-4.53,-2.59,0,*71
1498633497.73,22028,18.88,73710.8,9.93,-5.07,-3.07,0,*72
1498633498.95,22029,18.88,73720.5,9.95,-4.57,-2.63,0,*72
1498633500.17,22030,18.88,73724.8,9.95,-4.41,-2.51,0,*7C
1498633501.39,22031,18.88,73726.3,9.95,-4.41,-2.47,0,*7A
1498633502.61,22032,18.88,73722.5,9.93,-4.05,-2.15,0,*78
1498633503.85,22033,18.88,73710.8,9.93,-4.05,-2.03,0,*7E
1498633505.09,22034,18.88,73708.0,10.01,-3.83,-1.91,0,*4B
1498633506.34,22035,18.88,73698.0,10.01,-3.95,-2.11,0,*46
1498633507.54,22036,18.88,73706.0,9.99,-4.21,-2.23,0,*75
1498633508.79,22037,18.88,73716.3,10.01,-3.95,-2.11,0,*44
1498633509.99,22038,18.88,73720.0,10.03,-4.21,-2.39,0,*4B
1498633511.18,22039,18.88,73716.3,10.03,-4.17,-2.19,0,*4D
1498633512.39,22040,18.88,73716.5,10.03,-3.71,-1.75,0,*4D
1498633513.6,22041,18.88,73710.0,10.05,-4.21,-2.39,0,*43
1498633514.8,22042,18.88,73714.5,10.05,-4.33,-2.39,0,*43
1498633516.01,22043,18.88,73718.3,10.05,-4.21,-2.27,0,*4E
1498633517.2,22044,18.88,73726.0,10.03,-4.29,-2.27,0,*47
1498633518.39,22045,18.88,73722.8,10.05,-4.29,-2.27,0,*40
1498633519.59,22046,18.88,73698.0,10.05,-4.05,-2.15,0,*4C
1498633520.8,22047,18.88,73692.5,10.05,-4.21,-2.19,0,*47
1498633522.05,22048,18.88,73700.3,10.09,-4.01,-2.07,0,*49
1498633523.34,22049,18.88,73706.5,10.07,-4.01,-2.03,0,*42
1498633524.55,22050,18.88,73704.3,10.09,-4.09,-2.11,0,*4F
1498633525.81,22051,18.88,73696.8,10.09,-4.01,-2.07,0,*41
1498633527.04,22052,18.88,73690.0,10.11,-3.83,-1.79,0,*4C
1498633528.29,22053,18.88,73704.8,10.11,-3.71,-1.71,0,*48
1498633529.53,22054,18.88,73720.3,10.11,-3.75,-1.79,0,*43
1498633530.75,22055,18.88,73718.3,10.13,-3.71,-1.75,0,*48
1498633531.97,22056,18.88,73712.8,10.13,-3.95,-2.03,0,*43
1498633533.16,22057,18.88,73718.8,10.13,-4.05,-2.19,0,*47
1498633534.38,22058,18.88,73722.8,10.15,-4.09,-2.27,0,*4F
1498633535.63,22059,18.88,73720.3,10.15,-4.49,-2.63,0,*4A
1498633536.85,22060,18.88,73716.3,10.17,-4.05,-2.11,0,*4F
1498633538.05,22061,18.88,73712.3,10.17,-3.75,-1.71,0,*4B
1498633539.28,22062,18.88,73714.3,10.17,-3.79,-1.91,0,*4A
1498633540.51,22063,18.88,73712.0,10.17,-3.79,-1.87,0,*4C
1498633541.73,22064,18.88,73720.0,10.21,-3.63,-1.67,0,*4B
1498633542.95,22065,18.88,73722.5,10.21,-3.63,-1.67,0,*4A
1498633544.2,22066,18.88,73728.0,10.23,-3.51,-1.59,0,*47
1498633545.44,22067,18.88,73728.0,10.27,-3.47,-1.55,0,*49
1498633546.69,22068,18.88,73724.0,10.27,-3.67,-1.67,0,*45
1498633547.9,22069,18.88,73716.3,10.25,-3.55,-1.63,0,*43
1498633549.15,22070,18.88,73730.3,10.27,-3.59,-1.63,0,*45
1498633550.4,22071,18.88,73758.5,10.27,-3.71,-1.67,0,*4A
1498633551.6,22072,18.88,73742.8,10.29,-4.21,-2.35,0,*41
1498633552.81,22073,18.88,73704.0,10.29,-4.69,-2.87,0,*45
1498633554.03,22074,18.88,73676.5,10.29,-4.53,-2.51,0,*40
1498633555.26,22075,18.88,73692.5,10.29,-4.33,-2.51,0,*47
1498633556.49,22076,18.88,73682.5,10.29,-4.69,-2.75,0,*4D
1498633557.68,22077,18.88,73666.3,10.29,-4.99,-3.03,0,*43
1498633558.91,22078,18.88,73680.0,10.29,-5.77,-3.55,0,*4E
1498633560.1,22079,18.88,73688.3,10.25,-4.99,-3.03,0,*41
1498633561.31,22080,18.88,73698.8,10.27,-4.99,-3.03,0,*45
1498633562.52,22081,18.88,73686.5,10.25,-4.73,-2.79,0,*4E
1498633563.71,22082,18.88,73690.3,10.25,-4.33,-2.27,0,*42
1498633564.92,22083,18.88,73698.5,10.27,-4.17,-2.27,0,*47
1498633566.15,22084,18.88,73690.3,10.27,-4.33,-2.31,0,*41
1498633567.36,22085,18.88,73684.8,10.27,-4.37,-2.39,0,*4C
1498633568.58,22086,18.88,73686.8,10.27,-4.25,-2.27,0,*43
1498633569.8,22087,18.88,73704.3,10.29,-4.89,-2.99,0,*4F
1498633571.02,22088,18.88,73716.3,10.29,-4.53,-2.51,0,*43
1498633572.22,22089,18.88,73714.5,10.29,-4.29,-2.23,0,*4A
1498633573.43,22090,18.88,73700.8,10.29,-4.13,-2.11,0,*4A
1498633574.65,22091,18.88,73698.0,10.29,-4.13,-2.11,0,*4B
1498633575.92,22092,18.88,73698.0,10.31,-4.77,-2.75,0,*41
1498633577.17,22093,18.88,73710.0,10.31,-5.07,-2.95,0,*48
1498633578.41,22094,18.88,73714.5,10.31,-4.65,-2.59,0,*4A
1498633579.63,22095,18.88,73714.3,10.31,-4.41,-2.35,0,*47
1498633580.85,22096,18.88,73708.5,10.31,-4.25,-2.23,0,*41
1498633582.1,22097,18.88,73714.5,10.31,-4.09,-2.07,0,*48
1498633583.3,22098,18.88,73712.0,10.33,-3.79,-1.79,0,*4F
1498633584.5,22099,18.88,73714.3,10.33,-3.79,-1.71,0,*46
1498633585.73,22100,18.88,73730.8,10.35,-3.91,-1.79,0,*4F
1498633586.95,22101,18.88,73722.8,10.35,-4.13,-2.15,0,*4A
1498633588.18,22102,18.88,73712.0,10.37,-4.85,-2.87,0,*4F
1498633589.45,22103,18.88,73696.5,10.37,-4.77,-2.63,0,*49
1498633590.69,22104,18.88,73690.8,10.35,-5.11,-3.03,0,*4A
1498633591.92,22105,18.88,73704.5,10.35,-5.23,-3.19,0,*41
1498633593.16,22106,18.88,73708.8,10.35,-5.51,-3.43,0,*48
1498633594.35,22107,18.88,73702.5,10.33,-5.47,-3.35,0,*49
1498633595.57,22108,18.88,73710.0,10.31,-5.43,-3.35,0,*40
1498633596.81,22109,18.88,73710.3,10.31,-5.27,-3.11,0,*45
1498633598.03,22110,18.88,73710.5,10.31,-4.37,-2.31,0,*4E
1498633599.28,22111,18.88,73710.8,10.35,-4.25,-2.07,0,*4D
1498633600.49,22112,18.88,73704.5,10.33,-4.09,-1.91,0,*4A
1498633601.75,22113,18.88,73698.3,10.35,-4.73,-2.55,0,*4B
1498633602.96,22114,18.88,73700.5,10.35,-4.99,-2.83,0,*43
1498633604.17,22115,18.88,73706.5,10.35,-4.99,-2.83,0,*42
1498633605.41,22116,18.88,73700.3,10.35,-5.15,-3.07,0,*49
1498633606.65,22117,18.88,73704.8,10.35,-5.03,-2.91,0,*41
1498633607.86,22118,18.88,73706.5,10.35,-4.99,-2.91,0,*4C
1498633609.07,22119,18.88,73706.8,10.33,-5.03,-2.91,0,*49
1498633610.29,22120,18.88,73704.8,10.33,-5.03,-2.95,0,*47
1498633611.5,22121,18.88,73700.8,10.33,-5.11,-2.91,0,*41
1498633612.69,22122,18.88,73708.8,10.33,-5.51,-3.31,0,*4D
1498633613.9,22123,18.88,73706.3,10.33,-4.99,-2.71,0,*4C
1498633615.13,22124,18.88,73712.0,10.33,-4.81,-2.59,0,*48
1498633616.34,22125,18.88,73716.5,10.33,-4.99,-2.71,0,*4A
1498633617.55,22126,18.88,73718.0,10.33,-4.69,-2.43,0,*47
1498633618.73,22127,18.88,73718.0,10.33,-4.49,-2.39,0,*49
1498633619.94,22128,18.88,73724.5,10.35,-4.37,-2.27,0,*46
1498633621.15,22129,18.88,73722.5,10.35,-4.37,-2.19,0,*4A
1498633622.37,22130,18.88,73722.0,10.37,-4.29,-2.15,0,*43
1498633623.59,22131,18.88,73712.5,10.37,-4.57,-2.35,0,*49
1498633624.86,22132,18.88,73722.0,10.37,-4.85,-2.67,0,*42
1498633626.08,22133,18.88,73718.0,10.37,-4.53,-2.35,0,*4F
1498633627.29,22134,18.88,73720.3,10.37,-4.99,-2.87,0,*47
1498633628.5,22135,18.88,73716.3,10.39,-5.11,-2.91,0,*4E
1498633629.74,22136,18.88,73716.0,10.37,-5.07,-2.91,0,*44
1498633631.01,22137,18.88,73726.5,10.37,-4.77,-2.51,0,*4F
1498633632.24,22138,18.88,73714.8,10.39,-4.21,-2.03,0,*4A
1498633633.51,22139,18.88,73722.8,10.37,-4.69,-2.63,0,*4F
1498633634.72,22140,18.88,73722.5,10.39,-5.11,-2.91,0,*4C
1498633635.97,22141,18.88,73722.0,10.37,-5.19,-2.95,0,*4F
1498633637.18,22142,18.88,73724.5,10.37,-5.43,-3.19,0,*46
1498633638.41,22143,18.88,73736.3,10.37,-4.69,-2.43,0,*40
1498633639.64,22144,18.88,73734.0,10.39,-4.21,-2.03,0,*41
1498633640.86,22145,18.88,73730.5,10.37,-4.45,-2.23,0,*4E
1498633642.05,22146,18.88,73730.0,10.39,-4.45,-2.23,0,*43
1498633643.23,22147,18.88,73730.5,10.39,-4.45,-2.27,0,*46
1498633644.43,22148,18.88,73724.8,10.39,-4.41,-2.35,0,*4E
1498633645.62,22149,18.88,73724.0,10.39,-4.45,-2.23,0,*4C
1498633646.86,22150,18.88,73722.3,10.39,-4.69,-2.55,0,*4B
1498633648.11,22151,18.88,73734.0,10.39,-4.81,-2.67,0,*4D
1498633649.35,22152,18.88,73722.5,10.39,-4.85,-2.67,0,*4A
1498633650.59,22153,18.88,73726.3,10.39,-4.81,-2.63,0,*4B
1498633651.82,22154,18.88,73720.5,10.41,-4.93,-2.83,0,*4E
1498633653.09,22155,18.88,73718.8,10.41,-4.81,-2.63,0,*42
1498633654.3,22156,18.88,73724.8,10.41,-4.53,-2.35,0,*4D
1498633655.52,22157,18.88,73738.3,10.41,-4.37,-2.19,0,*40
1498633656.78,22158,18.88,73732.0,10.41,-4.77,-2.51,0,*47
1498633658.04,22159,18.88,73718.5,10.41,-4.81,-2.63,0,*4E
1498633659.26,22160,18.88,73736.8,10.45,-4.49,-2.35,0,*47
1498633660.47,22161,18.88,73746.3,10.41,-4.41,-2.23,0,*4D
1498633661.69,22162,18.88,73732.5,10.41,-4.53,-2.39,0,*46
1498633662.92,22163,18.88,73726.3,10.45,-4.89,-2.79,0,*40
1498633664.16,22164,18.88,73722.3,10.41,-4.65,-2.59,0,*43
1498633665.38,22165,18.88,73724.8,10.45,-4.61,-2.35,0,*48
1498633666.63,22166,18.88,73732.0,10.45,-4.21,-2.07,0,*4E
1498633667.88,22167,18.88,73746.8,10.45,-4.13,-2.03,0,*4A
1498633669.07,22168,18.88,73746.5,10.47,-4.49,-2.35,0,*4D
1498633670.27,22169,18.88,73748.5,10.47,-4.25,-2.15,0,*44
1498633671.46,22170,18.88,73736.5,10.47,-4.57,-2.43,0,*4A
1498633672.73,22171,18.88,73726.0,10.49,-4.81,-2.63,0,*4C
1498633673.97,22172,18.88,73726.8,10.49,-4.09,-2.03,0,*49
1498633675.19,22173,18.88,73726.3,10.47,-4.09,-1.95,0,*4A
1498633676.41,22174,18.88,73724.0,10.47,-4.09,-1.91,0,*49
1498633677.63,22175,18.88,73716.0,10.49,-4.41,-2.23,0,*40
1498633678.86,22176,18.88,73722.3,10.51,-4.57,-2.51,0,*48
1498633680.08,22177,18.88,73724.8,10.49,-4.53,-2.31,0,*42
1498633681.29,22178,18.88,73728.5,10.49,-4.45,-2.31,0,*4A
1498633682.49,22179,18.88,73732.5,10.47,-4.33,-2.19,0,*4E
1498633683.74,22180,18.88,73720.8,10.49,-3.95,-1.87,0,*49
1498633684.98,22181,18.88,73730.0,10.53,-4.29,-2.11,0,*4F
1498633686.23,22182,18.88,73742.8,10.53,-4.05,-1.99,0,*41
1498633687.45,22183,18.88,73732.0,10.51,-4.09,-1.99,0,*4E
1498633688.69,22184,18.88,73714.8,10.53,-4.65,-2.59,0,*4E
1498633689.92,22185,18.88,73702.0,10.51,-5.07,-2.99,0,*44
1498633691.15,22186,18.88,73708.5,10.53,-4.81,-2.83,0,*41
1498633692.39,22187,18.88,73722.0,10.51,-4.69,-2.55,0,*4F
1498633693.58,22188,18.88,73708.5,10.51,-4.53,-2.39,0,*43
1498633694.79,22189,18.88,73712.0,10.51,-4.81,-2.79,0,*49
1498633695.97,22190,18.88,73716.5,10.51,-4.99,-2.83,0,*4D
1498633697.18,22191,18.88,73720.3,10.51,-4.81,-2.79,0,*40
1498633698.38,22192,18.88,73724.8,10.51,-4.33,-2.27,0,*41
1498633699.59,22193,18.88,73734.5,10.51,-4.09,-2.11,0,*4C
1498633700.78,22194,18.88,73722.8,10.55,-4.37,-2.43,0,*45
1498633702.02,22195,18.88,73712.8,10.53,-3.91,-1.95,0,*41
1498633703.27,22196,18.88,73720.8,10.53,-4.41,-2.51,0,*43
1498633704.49,22197,18.88,73720.0,10.51,-4.09,-2.11,0,*48
1498633705.73,22198,18.88,73718.0,10.53,-4.61,-2.47,0,*48
1498633706.98,22199,18.88,73712.5,10.53,-4.61,-2.63,0,*4F
1498633708.24,22200,18.88,73716.5,10.53,-4.77,-2.75,0,*4C
1498633709.45,22201,18.88,73728.5,10.53,-4.37,-2.35,0,*4D